Location: Unspecified
(0.0000°N, 0.0000°E)
Time: 19:02:56
(UTC+00:00)

STARLINK-30201 - Visible Passes

Search period start: 10 November 2025 00:00
Search period end: 20 November 2025 00:00
Orbit: 558 x 560 km, 43.0° (Epoch: 08 November)

Date Brightness Start Highest point End Pass type
(mag) Time Alt. Az. Time Alt. Az. Time Alt. Az.
10 Nov 3.6 18:22:17 10° NW 18:26:30 69° NE 18:30:41 10° SE visible
11 Nov 4.1 18:19:17 10° NW 18:23:28 65° SW 18:27:39 10° SE visible
12 Nov 6.7 04:39:22 10° SSE 04:41:26 13° SE 04:43:28 10° ESE visible
12 Nov 5.4 18:16:33 10° WNW 18:20:26 36° SW 18:24:20 10° SSE visible
13 Nov 6.2 04:35:08 10° S 04:38:27 22° SE 04:41:45 10° E visible
13 Nov 6.4 18:14:11 10° W 18:17:26 21° SW 18:20:41 10° S visible
14 Nov 5.1 04:31:31 10° SSW 04:35:26 37° SE 04:39:22 10° ENE visible
14 Nov 6.8 18:12:32 10° WSW 18:14:27 13° SW 18:16:22 10° SSW visible
15 Nov 3.9 04:28:13 10° SW 04:32:25 68° SE 04:36:36 10° NE visible
16 Nov 3.5 04:27:16 28° WSW 04:29:23 66° NW 04:33:34 10° NE visible
17 Nov 4.3 04:26:46 35° NNW 04:26:46 35° NNW 04:30:15 10° NNE visible
18 Nov 5.8 04:25:52 13° N 04:25:52 13° N 04:26:36 10° N visible
